This is the latest recevied weather packets stored in our database for station/object WA9SDJ-13. If no packets are shown the sender has not sent any weather packets the latest 10 day(s).
| Time | Temp. | Humidity | Pressure | Rain* | Wind** | Luminosity | Snow |
|---|---|---|---|---|---|---|---|
| 1778255762 | 17.78° C | 61% | 1011.5 hPa | 0 mm | - | 373 W/m² | - |
| 1778255702 | 17.78° C | 61% | 1011.5 hPa | 0 mm | - | 336 W/m² | - |
| 1778255642 | 17.78° C | 60% | 1011.6 hPa | 0 mm | - | 343 W/m² | - |
| 1778255583 | 17.78° C | 63% | 1011.6 hPa | 0 mm | - | 353 W/m² | - |
| 1778255522 | 17.78° C | 62% | 1011.5 hPa | 0 mm | - | 440 W/m² | - |
| 1778255462 | 17.78° C | 63% | 1011.6 hPa | 0 mm | - | 452 W/m² | - |
| 1778255403 | 17.78° C | 60% | 1011.5 hPa | 0 mm | - | 431 W/m² | - |
| 1778255343 | 17.78° C | 63% | 1011.6 hPa | 0 mm | - | 403 W/m² | - |
| 1778255282 | 17.78° C | 62% | 1011.6 hPa | 0 mm | - | 447 W/m² | - |
| 1778255223 | 17.78° C | 65% | 1011.7 hPa | 0 mm | - | 491 W/m² | - |
| 1778255162 | 17.78° C | 65% | 1011.6 hPa | 0 mm | - | 1134 W/m² | - |
| 1778255103 | 17.78° C | 63% | 1011.7 hPa | 0 mm | - | 397 W/m² | - |
| 1778255041 | 17.78° C | 64% | 1011.7 hPa | 0 mm | - | 357 W/m² | - |
| 1778254982 | 17.22° C | 64% | 1011.7 hPa | 0 mm | - | 378 W/m² | - |
| 1778254922 | 17.22° C | 62% | 1011.7 hPa | 0 mm | - | 308 W/m² | - |
| 1778254862 | 17.22° C | 66% | 1011.7 hPa | 0 mm | - | 295 W/m² | - |
| 1778254802 | 17.22° C | 65% | 1011.8 hPa | 0 mm | - | 804 W/m² | - |
| 1778254742 | 17.22° C | 64% | 1011.8 hPa | 0 mm | - | 932 W/m² | - |
| 1778254682 | 17.22° C | 63% | 1011.8 hPa | 0 mm | - | 308 W/m² | - |
| 1778254622 | 17.22° C | 63% | 1011.9 hPa | 0 mm | - | 309 W/m² | - |
| 1778254563 | 17.22° C | 63% | 1011.9 hPa | 0 mm | - | 283 W/m² | - |
| 1778254502 | 17.22° C | 63% | 1011.9 hPa | 0 mm | - | 264 W/m² | - |
| 1778254442 | 17.22° C | 65% | 1011.8 hPa | 0 mm | - | 260 W/m² | - |
| 1778254382 | 17.22° C | 65% | 1011.9 hPa | 0 mm | - | 343 W/m² | - |
| 1778254322 | 17.22° C | 64% | 1011.9 hPa | 0 mm | - | 273 W/m² | - |
* Rain latest hour (hover to see other rain measurements)
** Current wind speed in m/s (hover to see current wind gust speed)